Hourly Weather Alihe

Today, 8 March, Monday

Time Temperature Precipitation Wind Pressure Humidity
00:00 -14°C° 0 mm 1 mps 721 mmHg 87%
01:00 -15°C° 0 mm 1 mps 720 mmHg 87%
02:00 -15°C° 0 mm 0 mps 720 mmHg 88%
03:00 -15°C° 0 mm 0 mps 719 mmHg 88%
04:00 -16°C° 0 mm 0 mps 719 mmHg 88%
05:00 -16°C° 0 mm 0 mps 718 mmHg 87%
06:00 -14°C° 0 mm 0 mps 718 mmHg 85%
07:00 -13°C° 0 mm 1 mps 718 mmHg 82%
08:00 -11°C° 0 mm 1 mps 717 mmHg 78%
09:00 -8°C° 0 mm 1 mps 717 mmHg 76%
10:00 -7°C° 0 mm 2 mps 716 mmHg 74%
11:00 -5°C° 0 mm 2 mps 715 mmHg 72%
12:00 -3°C° 0 mm 2 mps 714 mmHg 73%
13:00 -2°C° 0 mm 3 mps 714 mmHg 73%
14:00 -1°C° 0 mm 3 mps 712 mmHg 74%
15:00 -2°C° 0 mm 3 mps 712 mmHg 77%
16:00 -2°C° 0 mm 3 mps 712 mmHg 79%
17:00 -2°C° 0 mm 3 mps 711 mmHg 82%
18:00 -4°C° 0 mm 3 mps 711 mmHg 83%
19:00 -6°C° 0 mm 3 mps 711 mmHg 84%
20:00 -8°C° 0 mm 4 mps 711 mmHg 85%
21:00 -8°C° 0 mm 4 mps 711 mmHg 84%
22:00 -9°C° 0 mm 4 mps 710 mmHg 84%
23:00 -9°C° 0 mm 4 mps 710 mmHg 83%

Tomorrow, 9 March, Tuesday

Time Temperature Precipitation Wind Pressure Humidity
00:00 -10°C° 0 mm 5 mps 710 mmHg 81%
01:00 -10°C° 0 mm 5 mps 710 mmHg 78%
02:00 -10°C° 0 mm 6 mps 710 mmHg 76%
03:00 -11°C° 0 mm 6 mps 711 mmHg 74%
04:00 -12°C° 0 mm 7 mps 711 mmHg 72%
05:00 -13°C° 0 mm 7 mps 712 mmHg 70%
06:00 -11°C° 0 mm 6 mps 713 mmHg 69%
07:00 -11°C° 0 mm 6 mps 714 mmHg 69%
08:00 -11°C° 0 mm 6 mps 716 mmHg 68%
09:00 -10°C° 0 mm 6 mps 717 mmHg 63%
10:00 -8°C° 0 mm 6 mps 718 mmHg 58%
11:00 -6°C° 0 mm 6 mps 719 mmHg 53%
12:00 -6°C° 0 mm 6 mps 719 mmHg 51%
13:00 -6°C° 0 mm 6 mps 720 mmHg 48%
14:00 -5°C° 0 mm 6 mps 720 mmHg 46%
15:00 -5°C° 0 mm 4 mps 720 mmHg 53%
16:00 -6°C° 0 mm 3 mps 721 mmHg 59%
17:00 -6°C° 0 mm 2 mps 721 mmHg 66%
18:00 -8°C° 0 mm 2 mps 721 mmHg 70%
19:00 -10°C° 0 mm 2 mps 722 mmHg 75%
20:00 -10°C° 0 mm 1 mps 722 mmHg 80%
21:00 -11°C° 0 mm 1 mps 722 mmHg 80%
22:00 -12°C° 0 mm 1 mps 721 mmHg 79%
23:00 -13°C° 0 mm 1 mps 721 mmHg 79%

Day after tomorrow, 10 March, Wednesday

Time Temperature Precipitation Wind Pressure Humidity
00:00 -13°C° 0 mm 1 mps 721 mmHg 78%
01:00 -13°C° 0 mm 1 mps 720 mmHg 77%
02:00 -13°C° 0 mm 1 mps 720 mmHg 76%
03:00 -13°C° 0 mm 1 mps 720 mmHg 76%
04:00 -12°C° 0 mm 1 mps 719 mmHg 77%
05:00 -12°C° 0 mm 1 mps 718 mmHg 77%
06:00 -11°C° 0 mm 1 mps 718 mmHg 75%
07:00 -10°C° 0 mm 1 mps 717 mmHg 73%
08:00 -9°C° 0 mm 1 mps 717 mmHg 71%
09:00 -7°C° 0 mm 1 mps 716 mmHg 68%
10:00 -6°C° 0 mm 2 mps 716 mmHg 64%
11:00 -4°C° 0 mm 2 mps 716 mmHg 61%
12:00 -4°C° 0 mm 3 mps 716 mmHg 62%
13:00 -2°C° 0 mm 4 mps 716 mmHg 63%
14:00 -1°C° 0 mm 4 mps 716 mmHg 64%
15:00 -2°C° 0 mm 4 mps 716 mmHg 65%
16:00 -2°C° 0 mm 4 mps 717 mmHg 65%
17:00 -3°C° 0 mm 4 mps 717 mmHg 65%
18:00 -5°C° 0 mm 3 mps 718 mmHg 71%
19:00 -7°C° 0 mm 3 mps 719 mmHg 77%
20:00 -8°C° 0 mm 2 mps 720 mmHg 82%
21:00 -9°C° 0 mm 2 mps 721 mmHg 84%
22:00 -9°C° 0 mm 2 mps 721 mmHg 85%
23:00 -9°C° 0 mm 1 mps 722 mmHg 86%

11 March, Thursday

Time Temperature Precipitation Wind Pressure Humidity
00:00 -10°C° 0 mm 1 mps 722 mmHg 87%
01:00 -11°C° 0 mm 1 mps 723 mmHg 87%
02:00 -11°C° 0 mm 1 mps 723 mmHg 88%
03:00 -12°C° 0 mm 1 mps 723 mmHg 88%
04:00 -12°C° 0 mm 1 mps 724 mmHg 88%
05:00 -13°C° 0 mm 1 mps 724 mmHg 88%
06:00 -11°C° 0 mm 1 mps 724 mmHg 85%
07:00 -10°C° 0 mm 1 mps 724 mmHg 83%
08:00 -9°C° 0 mm 1 mps 725 mmHg 80%
09:00 -7°C° 0 mm 1 mps 725 mmHg 74%
10:00 -3°C° 0 mm 1 mps 724 mmHg 69%
11:00 -3°C° 0 mm 2 mps 724 mmHg 63%
12:00 -2°C° 0 mm 2 mps 724 mmHg 62%
13:00 -1°C° 0 mm 3 mps 723 mmHg 61%
14:00 0°C° 0 mm 3 mps 723 mmHg 60%
15:00 -1°C° 0 mm 3 mps 722 mmHg 65%
16:00 -2°C° 0 mm 2 mps 722 mmHg 70%
17:00 -2°C° 0 mm 2 mps 722 mmHg 75%
18:00 -4°C° 0 mm 2 mps 722 mmHg 79%
19:00 -5°C° 0 mm 2 mps 723 mmHg 82%
20:00 -6°C° 0 mm 1 mps 723 mmHg 86%
21:00 -7°C° 0 mm 1 mps 724 mmHg 86%
22:00 -7°C° 0 mm 1 mps 724 mmHg 87%
23:00 -8°C° 0 mm 1 mps 724 mmHg 87%

12 March, Friday

Time Temperature Precipitation Wind Pressure Humidity
00:00 -9°C° 0 mm 1 mps 724 mmHg 88%
01:00 -9°C° 0 mm 1 mps 724 mmHg 88%
02:00 -10°C° 0 mm 1 mps 724 mmHg 89%
03:00 -10°C° 0 mm 1 mps 724 mmHg 89%
04:00 -10°C° 0 mm 1 mps 724 mmHg 89%
05:00 -10°C° 0 mm 1 mps 724 mmHg 89%
06:00 -9°C° 0 mm 1 mps 724 mmHg 85%
07:00 -8°C° 0 mm 1 mps 724 mmHg 81%
08:00 -6°C° 0 mm 1 mps 723 mmHg 78%
09:00 -5°C° 0 mm 2 mps 723 mmHg 71%
10:00 -2°C° 0 mm 2 mps 723 mmHg 65%
11:00 0°C° 0 mm 3 mps 723 mmHg 58%
12:00 +1°C° 0 mm 3 mps 722 mmHg 56%
13:00 +3°C° 0 mm 4 mps 722 mmHg 54%
14:00 +3°C° 0 mm 5 mps 721 mmHg 52%
15:00 +3°C° 0 mm 4 mps 721 mmHg 55%
16:00 +2°C° 0 mm 3 mps 721 mmHg 58%
17:00 +1°C° 0 mm 3 mps 720 mmHg 61%
18:00 -1°C° 0 mm 3 mps 720 mmHg 65%
19:00 -3°C° 0 mm 2 mps 720 mmHg 69%
20:00 -4°C° 0 mm 2 mps 720 mmHg 73%
21:00 -5°C° 0 mm 2 mps 720 mmHg 73%
22:00 -6°C° 0 mm 2 mps 720 mmHg 73%
23:00 -6°C° 0 mm 2 mps 719 mmHg 73%

13 March, Saturday

Time Temperature Precipitation Wind Pressure Humidity
00:00 -7°C° 0 mm 2 mps 719 mmHg 74%
01:00 -7°C° 0 mm 2 mps 718 mmHg 76%
02:00 -7°C° 0 mm 2 mps 718 mmHg 77%
03:00 -8°C° 0 mm 2 mps 718 mmHg 78%
04:00 -7°C° 0 mm 1 mps 717 mmHg 79%
05:00 -7°C° 0 mm 1 mps 717 mmHg 81%
06:00 -6°C° 0 mm 1 mps 717 mmHg 79%
07:00 -4°C° 0 mm 1 mps 718 mmHg 76%
08:00 -3°C° 0 mm 1 mps 718 mmHg 74%
09:00 -1°C° 0 mm 1 mps 717 mmHg 69%
10:00 +1°C° 0 mm 1 mps 717 mmHg 65%
11:00 +2°C° 0 mm 2 mps 717 mmHg 60%
12:00 +3°C° 0 mm 2 mps 717 mmHg 60%
13:00 +4°C° 0 mm 2 mps 716 mmHg 60%
14:00 +5°C° 0 mm 2 mps 715 mmHg 60%
15:00 +4°C° 0 mm 2 mps 715 mmHg 65%
16:00 +3°C° 0 mm 2 mps 715 mmHg 70%
17:00 +3°C° 0 mm 1 mps 715 mmHg 76%
18:00 +2°C° 0 mm 1 mps 715 mmHg 79%
19:00 -2°C° 0 mm 2 mps 715 mmHg 83%
20:00 -3°C° 0 mm 2 mps 715 mmHg 87%
21:00 -4°C° 0 mm 2 mps 714 mmHg 88%
22:00 -4°C° 0 mm 2 mps 714 mmHg 89%
23:00 -3°C° 0 mm 1 mps 714 mmHg 90%
Show more